TimeHST,TemperatureF,Dew PointF,Humidity,Sea Level PressureIn,VisibilityMPH,Wind Direction,Wind SpeedMPH,Gust SpeedMPH,PrecipitationIn,Events,Conditions,WindDirDegrees,DateUTC
12:53 AM,75.9,68.0,76,30.01,10.0,ENE,6.9,-,N/A,,Scattered Clouds,70,2013-08-14 10:53:00
1:53 AM,75.9,66.9,74,29.99,10.0,East,8.1,-,N/A,,Mostly Cloudy,80,2013-08-14 11:53:00
2:53 AM,75.9,66.0,71,29.98,10.0,East,9.2,-,N/A,,Scattered Clouds,80,2013-08-14 12:53:00
3:53 AM,75.9,66.0,71,29.98,10.0,ENE,9.2,-,N/A,,Clear,60,2013-08-14 13:53:00
4:53 AM,75.0,64.9,71,29.97,10.0,ENE,9.2,-,N/A,,Partly Cloudy,70,2013-08-14 14:53:00
5:53 AM,75.0,64.9,71,29.97,10.0,ENE,10.4,-,N/A,,Partly Cloudy,70,2013-08-14 15:53:00
6:53 AM,75.9,64.9,69,29.99,10.0,ENE,9.2,-,N/A,,Scattered Clouds,60,2013-08-14 16:53:00
7:53 AM,79.0,66.0,64,30.01,10.0,ENE,11.5,-,N/A,,Scattered Clouds,70,2013-08-14 17:53:00
8:53 AM,81.0,64.9,58,30.01,10.0,ENE,18.4,-,N/A,,Scattered Clouds,70,2013-08-14 18:53:00
9:53 AM,82.0,64.0,54,30.02,10.0,ENE,16.1,25.3,N/A,,Scattered Clouds,60,2013-08-14 19:53:00
10:53 AM,84.0,64.0,51,30.01,10.0,ENE,17.3,25.3,N/A,,Scattered Clouds,60,2013-08-14 20:53:00
11:53 AM,84.9,62.1,46,30.00,10.0,ENE,21.9,31.1,N/A,,Scattered Clouds,70,2013-08-14 21:53:00
12:53 PM,86.0,60.1,41,29.99,10.0,ENE,24.2,32.2,N/A,,Scattered Clouds,70,2013-08-14 22:53:00
1:53 PM,87.1,61.0,41,29.96,10.0,ENE,20.7,28.8,N/A,,Scattered Clouds,70,2013-08-14 23:53:00
2:53 PM,87.1,62.1,43,29.95,10.0,ENE,24.2,31.1,N/A,,Scattered Clouds,70,2013-08-15 00:53:00
3:53 PM,86.0,61.0,43,29.94,10.0,ENE,17.3,21.9,N/A,,Scattered Clouds,60,2013-08-15 01:53:00
4:53 PM,86.0,60.1,41,29.94,10.0,ENE,16.1,23.0,N/A,,Partly Cloudy,60,2013-08-15 02:53:00
5:53 PM,82.9,64.0,53,29.94,10.0,NE,18.4,25.3,N/A,,Partly Cloudy,40,2013-08-15 03:53:00
6:53 PM,80.1,63.0,56,29.96,10.0,NE,15.0,-,N/A,,Partly Cloudy,40,2013-08-15 04:53:00
7:53 PM,79.0,64.0,60,29.98,10.0,East,17.3,-,N/A,,Partly Cloudy,80,2013-08-15 05:53:00
8:53 PM,79.0,64.9,62,30.00,10.0,ENE,15.0,23.0,N/A,,Partly Cloudy,70,2013-08-15 06:53:00
9:53 PM,78.1,64.9,64,30.03,10.0,ENE,15.0,-,N/A,,Partly Cloudy,70,2013-08-15 07:53:00
10:53 PM,78.1,66.0,66,30.04,10.0,ENE,13.8,-,N/A,,Partly Cloudy,70,2013-08-15 08:53:00
11:53 PM,78.1,66.0,66,30.03,10.0,ENE,9.2,-,N/A,,Partly Cloudy,60,2013-08-15 09:53:00